FW5704 Weather Reports


Display with metric or nautical units.
time (UTC)temp
F
wind
direction
speed
MPH
gust
MPH
rain 1hr
in
rain 24hr
in
rain mn
in
humidity
%
barometer
mb
20260906152534 79 0 0.0 3.0 0.00 0.00 0.00 83 1016.1
20260906152034 79 205 0.0 5.0 0.00 0.00 0.00 82 1016.1
20260906151600 79 207 0.0 5.0 0.00 0.00 0.00 83 1016.1
20260906151038 79 217 1.0 5.0 0.00 0.00 0.00 83 1016.2
20260906150537 78 190 0.0 3.0 0.00 0.00 0.00 84 1016.1
20260906150101 78 200 0.0 3.0 0.00 0.00 0.00 84 1016.0
20260906145533 78 197 0.0 3.0 0.00 0.00 0.00 84 1016.1
20260906145034 78 209 0.0 4.0 0.00 0.00 0.00 84 1016.1
20260906144557 77 197 1.0 4.0 0.00 0.00 0.00 84 1016.2
20260906144034 77 201 0.0 4.0 0.00 0.00 0.00 84 1016.1
20260906143534 77 0 0.0 4.0 0.00 0.00 0.00 83 1016.1
20260906143055 77 0 0.0 0.0 0.00 0.00 0.00 84 1016.2
20260906142536 76 0 0.0 0.0 0.00 0.00 0.00 84 1016.1
20260906142034 76 0 0.0 0.0 0.00 0.00 0.00 85 1016.1
20260906141556 75 0 0.0 0.0 0.00 0.00 0.00 88 1016.1
20260906141033 75 0 0.0 0.0 0.00 0.00 0.00 88 1016.3
20260906140533 74 0 0.0 0.0 0.00 0.00 0.00 90 1016.3
20260906140054 74 0 0.0 0.0 0.00 0.00 0.00 93 1016.2
20260906135533 73 0 0.0 0.0 0.00 0.00 0.00 94 1016.4
20260906135034 72 0 0.0 0.0 0.00 0.00 0.00 96 1016.4
20260906134558 72 0 0.0 0.0 0.00 0.00 0.00 97 1016.4
20260906134035 71 0 0.0 0.0 0.00 0.00 0.00 97 1016.4
20260906133533 70 0 0.0 0.0 0.00 0.00 0.00 97 1016.4
20260906133118 70 0 0.0 0.0 0.00 0.00 0.00 97 1016.4
20260906132534 70 0 0.0 0.0 0.00 0.00 0.00 97 1016.5
20260906132034 70 0 0.0 0.0 0.00 0.00 0.00 97 1016.6
20260906131602 70 0 0.0 0.0 0.00 0.00 0.00 97 1016.6
20260906131035 69 0 0.0 0.0 0.00 0.00 0.00 97 1016.7
20260906130535 69 0 0.0 0.0 0.00 0.00 0.00 97 1016.6
20260906130111 68 0 0.0 0.0 0.00 0.00 0.00 97 1016.6
20260906125535 68 0 0.0 0.0 0.00 0.00 0.00 97 1016.7
20260906125035 68 0 0.0 0.0 0.00 0.00 0.00 97 1016.7
20260906124552 67 0 0.0 0.0 0.00 0.00 0.00 97 1016.7
20260906124033 67 0 0.0 0.0 0.00 0.00 0.00 97 1016.5
20260906123534 67 0 0.0 0.0 0.00 0.00 0.00 97 1016.4
20260906123057 67 0 0.0 0.0 0.00 0.00 0.00 97 1016.4
20260906122533 67 0 0.0 0.0 0.00 0.00 0.00 97 1016.3
20260906122036 66 0 0.0 0.0 0.00 0.00 0.00 96 1016.3
20260906121559 66 0 0.0 0.0 0.00 0.00 0.00 96 1016.3
20260906121036 66 0 0.0 0.0 0.00 0.00 0.00 96 1016.2
20260906120535 66 0 0.0 0.0 0.00 0.00 0.00 96 1016.1
20260906120059 66 0 0.0 0.0 0.00 0.00 0.00 96 1016.0
20260906115533 66 0 0.0 0.0 0.00 0.00 0.00 96 1016.1
20260906115033 66 0 0.0 0.0 0.00 0.00 0.00 96 1016.1
20260906114550 66 0 0.0 0.0 0.00 0.00 0.00 96 1016.0
20260906114032 66 0 0.0 0.0 0.00 0.00 0.00 96 1015.9
20260906113532 66 0 0.0 0.0 0.00 0.00 0.00 96 1016.1
20260906113101 65 0 0.0 0.0 0.00 0.00 0.00 96 1016.1
20260906112534 65 0 0.0 0.0 0.00 0.00 0.00 96 1016.1
20260906112034 65 0 0.0 0.0 0.00 0.00 0.00 96 1016.0
20260906111557 65 0 0.0 0.0 0.00 0.00 0.00 96 1016.0
20260906111034 66 0 0.0 0.0 0.00 0.00 0.00 95 1015.9
20260906110533 66 0 0.0 0.0 0.00 0.00 0.00 95 1015.9
20260906110100 66 0 0.0 0.0 0.00 0.00 0.00 95 1015.9
20260906105535 66 0 0.0 0.0 0.00 0.00 0.00 95 1015.9
20260906105032 66 0 0.0 0.0 0.00 0.00 0.00 95 1015.7
20260906104553 66 0 0.0 0.0 0.00 0.00 0.00 95 1015.6
20260906104033 66 0 0.0 0.0 0.00 0.00 0.00 95 1015.5
20260906103532 66 0 0.0 0.0 0.00 0.00 0.00 96 1015.3
20260906103049 66 0 0.0 0.0 0.00 0.00 0.00 95 1015.2
20260906102533 66 0 0.0 0.0 0.00 0.00 0.00 96 1015.2
20260906102032 66 0 0.0 0.0 0.00 0.00 0.00 95 1015.2
20260906101600 66 0 0.0 0.0 0.00 0.00 0.00 95 1015.3
20260906101034 66 0 0.0 0.0 0.00 0.00 0.00 95 1015.4
20260906100532 66 0 0.0 0.0 0.00 0.00 0.00 95 1015.4
20260906100057 66 0 0.0 0.0 0.00 0.00 0.00 95 1015.2
20260906095534 66 0 0.0 0.0 0.00 0.00 0.00 95 1015.5
20260906095033 66 0 0.0 0.0 0.00 0.00 0.00 95 1015.3
20260906094605 66 0 0.0 0.0 0.00 0.00 0.00 96 1015.3
20260906094034 67 0 0.0 0.0 0.00 0.00 0.00 96 1015.5
20260906093533 67 0 0.0 0.0 0.00 0.00 0.00 96 1015.3
20260906093112 66 0 0.0 0.0 0.00 0.00 0.00 95 1015.3
20260906092534 66 0 0.0 0.0 0.00 0.00 0.00 95 1015.3
20260906092033 67 0 0.0 0.0 0.00 0.00 0.00 95 1015.3
20260906091557 67 0 0.0 0.0 0.00 0.00 0.00 95 1015.3
20260906091034 67 0 0.0 0.0 0.00 0.00 0.00 95 1015.1
20260906090532 67 0 0.0 0.0 0.00 0.00 0.00 96 1015.2
20260906090136 67 0 0.0 0.0 0.00 0.00 0.00 96 1015.2
20260906085534 67 0 0.0 0.0 0.00 0.00 0.00 96 1015.1
20260906085035 67 0 0.0 0.0 0.00 0.00 0.00 95 1015.1
20260906084616 67 0 0.0 0.0 0.00 0.00 0.00 95 1015.1
20260906084036 67 0 0.0 0.0 0.00 0.00 0.00 95 1015.0
20260906083535 67 0 0.0 0.0 0.00 0.00 0.00 95 1014.9
20260906083057 67 0 0.0 0.0 0.00 0.00 0.00 95 1015.0
20260906082532 67 0 0.0 0.0 0.00 0.00 0.00 95 1015.1
20260906082034 67 0 0.0 0.0 0.00 0.00 0.00 95 1015.0
20260906081600 67 0 0.0 0.0 0.00 0.00 0.00 95 1015.1
20260906081032 67 0 0.0 0.0 0.00 0.00 0.00 95 1015.1
20260906080533 67 0 0.0 0.0 0.00 0.00 0.00 95 1015.2
20260906080108 67 0 0.0 0.0 0.00 0.00 0.00 95 1015.1
20260906075534 67 0 0.0 0.0 0.00 0.00 0.00 95 1015.1
20260906075032 67 0 0.0 0.0 0.00 0.00 0.00 95 1015.2
20260906074601 67 0 0.0 0.0 0.00 0.00 0.00 95 1015.2
20260906074033 67 0 0.0 0.0 0.00 0.00 0.00 95 1015.0
20260906073533 67 0 0.0 0.0 0.00 0.00 0.00 95 1015.1
20260906073058 67 0 0.0 0.0 0.00 0.00 0.00 95 1015.0
20260906072533 67 0 0.0 0.0 0.00 0.00 0.00 95 1014.9
20260906072035 67 0 0.0 0.0 0.00 0.00 0.00 95 1014.9
20260906071557 67 0 0.0 0.0 0.00 0.00 0.00 95 1015.0
20260906071033 67 0 0.0 0.0 0.00 0.00 0.00 95 1015.1
20260906070533 67 0 0.0 0.0 0.00 0.00 0.00 95 1015.3
20260906070056 67 0 0.0 0.0 0.00 0.00 0.00 95 1015.3
20260906065535 67 0 0.0 0.0 0.00 0.00 0.00 95 1015.3
20260906065032 67 0 0.0 0.0 0.00 0.00 0.00 95 1015.4
20260906064556 68 0 0.0 0.0 0.00 0.00 0.00 95 1015.2
20260906064033 68 0 0.0 0.0 0.00 0.00 0.00 95 1015.3
20260906063531 68 0 0.0 0.0 0.00 0.00 0.00 95 1015.4
20260906063055 68 0 0.0 0.0 0.00 0.00 0.00 95 1015.4
20260906062532 67 0 0.0 0.0 0.00 0.00 0.00 95 1015.4
20260906062034 68 0 0.0 0.0 0.00 0.00 0.00 95 1015.4
20260906061606 68 0 0.0 0.0 0.00 0.00 0.00 95 1015.3
20260906061032 68 0 0.0 0.0 0.00 0.00 0.00 95 1015.2
20260906060533 68 0 0.0 0.0 0.00 0.00 0.00 95 1015.2
20260906060059 68 0 0.0 0.0 0.00 0.00 0.00 95 1015.3
20260906055532 68 0 0.0 0.0 0.00 0.00 0.00 95 1015.4
20260906055032 68 0 0.0 0.0 0.00 0.00 0.00 95 1015.6
20260906054603 68 0 0.0 0.0 0.00 0.00 0.00 95 1015.7
20260906054033 68 0 0.0 0.0 0.00 0.00 0.00 95 1015.9
20260906053533 68 0 0.0 0.0 0.00 0.00 0.00 95 1015.9
20260906053110 68 0 0.0 0.0 0.00 0.00 0.00 94 1016.0
20260906052535 68 0 0.0 0.0 0.00 0.00 0.00 95 1016.1
20260906052033 68 0 0.0 0.0 0.00 0.00 0.00 95 1016.1
20260906051556 68 0 0.0 0.0 0.00 0.00 0.00 95 1016.3
20260906051035 68 0 0.0 0.0 0.00 0.00 0.00 94 1016.1
20260906050533 68 0 0.0 0.0 0.00 0.00 0.00 95 1016.2
20260906050056 68 0 0.0 0.0 0.00 0.00 0.00 94 1016.1
20260906045533 68 0 0.0 0.0 0.00 0.00 0.00 95 1016.1
20260906045036 69 0 0.0 0.0 0.00 0.00 0.00 95 1016.1
20260906044555 69 0 0.0 0.0 0.00 0.00 0.00 95 1016.1
20260906044036 69 0 0.0 0.0 0.00 0.00 0.00 95 1016.0
20260906043534 69 0 0.0 0.0 0.00 0.00 0.00 94 1016.1
20260906043058 69 0 0.0 0.0 0.00 0.00 0.00 94 1016.1
20260906042533 69 0 0.0 0.0 0.00 0.00 0.00 94 1016.1
20260906042033 69 0 0.0 0.0 0.00 0.00 0.00 94 1015.9
20260906041554 69 0 0.0 0.0 0.00 0.00 0.00 94 1015.9
20260906041034 69 0 0.0 0.0 0.00 0.00 0.00 94 1015.8
20260906040533 69 0 0.0 0.0 0.00 0.00 0.00 94 1015.9
20260906040058 69 0 0.0 0.0 0.00 0.00 0.00 94 1016.1
20260906035539 69 0 0.0 0.0 0.00 0.00 0.00 94 1016.2
20260906035032 69 0 0.0 0.0 0.00 0.00 0.00 94 1016.2
20260906034554 69 0 0.0 0.0 0.00 0.00 0.00 94 1016.3
20260906034031 69 0 0.0 0.0 0.00 0.00 0.00 94 1016.4
20260906033536 69 0 0.0 0.0 0.00 0.00 0.00 94 1016.4
20260906033050 69 0 0.0 0.0 0.00 0.00 0.00 94 1016.3
20260906032533 69 0 0.0 0.0 0.00 0.00 0.00 94 1016.3
20260906032035 69 0 0.0 0.0 0.00 0.00 0.00 94 1016.4
20260906031557 69 0 0.0 0.0 0.00 0.00 0.00 94 1016.2
20260906031032 69 0 0.0 0.0 0.00 0.00 0.00 94 1016.3
20260906030533 69 0 0.0 0.0 0.00 0.00 0.00 94 1016.4
20260906030058 70 0 0.0 0.0 0.00 0.00 0.00 94 1016.4
20260906025532 70 0 0.0 0.0 0.00 0.00 0.00 94 1016.5
20260906025032 70 0 0.0 0.0 0.00 0.00 0.00 94 1016.4
20260906024609 70 0 0.0 0.0 0.00 0.00 0.00 94 1016.3
20260906024036 70 0 0.0 0.0 0.00 0.00 0.00 94 1016.3
20260906023534 70 0 0.0 0.0 0.00 0.00 0.00 94 1016.3
20260906023104 70 0 0.0 0.0 0.00 0.00 0.00 94 1016.1
20260906022536 70 0 0.0 0.0 0.00 0.00 0.00 94 1015.9
20260906022035 70 0 0.0 0.0 0.00 0.00 0.00 94 1015.9
20260906021555 70 0 0.0 0.0 0.00 0.00 0.00 93 1015.9
20260906021034 70 0 0.0 0.0 0.00 0.00 0.00 94 1015.9
20260906020534 70 0 0.0 0.0 0.00 0.00 0.00 93 1015.9
20260906020055 71 0 0.0 0.0 0.00 0.00 0.00 94 1015.8
20260906015534 71 0 0.0 0.0 0.00 0.00 0.00 93 1015.8
20260906015034 71 0 0.0 0.0 0.00 0.00 0.00 93 1015.7
20260906014559 71 0 0.0 0.0 0.00 0.00 0.00 93 1015.7
20260906014034 71 0 0.0 0.0 0.00 0.00 0.00 93 1015.7
20260906013534 71 0 0.0 0.0 0.00 0.00 0.00 93 1015.7
20260906013058 71 0 0.0 0.0 0.00 0.00 0.00 93 1015.7
20260906012535 71 0 0.0 0.0 0.00 0.00 0.00 93 1015.7
20260906012035 71 0 0.0 0.0 0.00 0.00 0.00 93 1015.5
20260906011602 71 0 0.0 0.0 0.00 0.00 0.00 93 1015.5
20260906011034 71 0 0.0 0.0 0.00 0.00 0.00 92 1015.5
20260906010534 72 0 0.0 0.0 0.00 0.00 0.00 92 1015.6
20260906010127 72 0 0.0 0.0 0.00 0.00 0.00 92 1015.5
20260906005534 72 0 0.0 0.0 0.00 0.00 0.00 92 1015.5
20260906005034 72 0 0.0 0.0 0.00 0.00 0.00 92 1015.3
20260906004555 72 0 0.0 0.0 0.00 0.00 0.00 92 1015.2
20260906004033 73 0 0.0 0.0 0.00 0.00 0.00 92 1015.0
20260906003533 73 0 0.0 0.0 0.00 0.00 0.00 92 1015.0
20260906003057 73 0 0.0 0.0 0.00 0.00 0.00 92 1015.1
20260906002535 73 0 0.0 0.0 0.00 0.00 0.00 92 1015.1
20260906002035 74 0 0.0 0.0 0.00 0.00 0.00 92 1015.1
20260906001605 74 0 0.0 0.0 0.00 0.00 0.00 92 1015.2
20260906001034 74 0 0.0 0.0 0.00 0.00 0.00 92 1015.3
20260906000534 74 0 0.0 0.0 0.00 0.00 0.00 92 1015.3
20260906000053 74 0 0.0 0.0 0.00 0.00 0.00 92 1015.2
20260905235534 74 0 0.0 0.0 0.00 0.00 0.00 92 1015.3
20260905235034 75 0 0.0 0.0 0.00 0.00 0.00 92 1015.1
20260905234548 75 0 0.0 0.0 0.00 0.00 0.00 92 1015.0
20260905234036 75 0 0.0 0.0 0.00 0.00 0.00 92 1015.0
20260905233535 75 0 0.0 0.0 0.00 0.00 0.00 92 1015.0
20260905233059 75 0 0.0 0.0 0.00 0.00 0.00 92 1015.0
20260905232533 75 0 0.0 0.0 0.00 0.00 0.00 92 1014.8
20260905232035 75 0 0.0 0.0 0.00 0.00 0.00 92 1014.8
20260905231555 75 0 0.0 0.0 0.00 0.00 0.00 92 1014.7
20260905231034 76 0 0.0 0.0 0.00 0.00 0.00 92 1014.5
20260905230534 76 0 0.0 0.0 0.00 0.00 0.00 92 1014.7
20260905230109 76 0 0.0 0.0 0.00 0.00 0.00 92 1014.8
20260905225534 76 0 0.0 0.0 0.00 0.00 0.00 92 1014.8
20260905225033 76 0 0.0 0.0 0.00 0.00 0.00 92 1014.8
20260905224559 76 0 0.0 0.0 0.00 0.00 0.00 92 1014.8
20260905224034 76 0 0.0 0.0 0.00 0.00 0.00 92 1014.9
20260905223534 76 0 0.0 0.0 0.00 0.00 0.00 91 1015.0
20260905223057 77 0 0.0 0.0 0.00 0.00 0.00 92 1015.0
20260905222533 77 0 0.0 0.0 0.00 0.00 0.00 91 1015.1
20260905222034 76 0 0.0 0.0 0.00 0.00 0.00 91 1015.1
20260905221555 76 0 0.0 0.0 0.00 0.00 0.00 91 1015.0
20260905221036 76 0 0.0 0.0 0.00 0.00 0.00 91 1015.1
20260905220533 76 0 0.0 0.0 0.00 0.00 0.00 90 1015.1
20260905215537 77 0 0.0 0.0 0.00 0.00 0.00 91 1015.2
20260905215035 77 0 0.0 0.0 0.00 0.00 0.00 91 1015.1
20260905214556 77 0 0.0 0.0 0.00 0.00 0.00 91 1015.3
20260905214034 77 0 0.0 0.0 0.00 0.00 0.00 91 1015.3
20260905213534 77 0 0.0 0.0 0.00 0.00 0.00 90 1015.2
20260905213058 77 0 0.0 0.0 0.00 0.00 0.00 90 1015.0
20260905212534 77 0 0.0 0.0 0.00 0.00 0.00 90 1015.0
20260905212033 77 0 0.0 0.0 0.00 0.00 0.00 92 1015.1
20260905211600 77 0 0.0 0.0 0.00 0.00 0.00 92 1015.2
20260905211036 77 0 0.0 0.0 0.00 0.00 0.00 92 1015.3
20260905210534 77 0 0.0 0.0 0.00 0.00 0.00 93 1015.3
20260905210059 77 0 0.0 0.0 0.00 0.00 0.00 92 1015.3
20260905205533 77 0 0.0 0.0 0.00 0.00 0.00 92 1015.3
20260905205034 77 0 0.0 0.0 0.00 0.00 0.00 91 1015.4
20260905204559 77 0 0.0 0.0 0.00 0.00 0.00 91 1015.7
20260905204034 77 0 0.0 0.0 0.00 0.00 0.00 90 1015.7
20260905203533 77 0 0.0 0.0 0.00 0.00 0.00 90 1015.6
20260905203100 77 0 0.0 0.0 0.00 0.00 0.00 89 1015.8
20260905202533 78 0 0.0 0.0 0.00 0.00 0.00 88 1015.9
20260905202036 78 0 0.0 1.0 0.00 0.00 0.00 87 1016.1
20260905201605 79 0 0.0 1.0 0.00 0.00 0.00 86 1016.2
20260905201033 79 0 0.0 2.0 0.00 0.00 0.00 85 1016.3
20260905200533 80 0 0.0 3.0 0.00 0.00 0.00 85 1016.0
20260905200059 80 180 1.0 3.0 0.00 0.00 0.00 83 1015.8
20260905195536 80 0 1.0 2.0 0.00 0.00 0.00 82 1015.7
20260905195033 81 0 0.0 1.0 0.00 0.00 0.00 82 1015.6
20260905194554 81 0 0.0 1.0 0.00 0.00 0.00 81 1015.7
20260905194033 81 0 0.0 1.0 0.00 0.00 0.00 81 1015.7
20260905193536 80 147 0.0 3.0 0.00 0.00 0.00 80 1015.6
20260905193100 80 0 0.0 4.0 0.00 0.00 0.00 81 1015.5
20260905192535 80 0 2.0 5.0 0.00 0.00 0.00 82 1015.7
20260905192036 80 201 2.0 5.0 0.00 0.00 0.00 80 1015.8
20260905191559 81 201 2.0 4.0 0.00 0.00 0.00 80 1016.0
20260905191034 81 194 1.0 7.0 0.00 0.00 0.00 81 1016.3
20260905190534 81 200 3.0 8.0 0.00 0.00 0.00 80 1016.4
20260905190101 81 193 4.0 8.0 0.00 0.00 0.00 79 1016.0
20260905185533 82 211 2.0 6.0 0.00 0.00 0.00 79 1016.2
20260905185033 82 202 1.0 4.0 0.00 0.00 0.00 80 1016.3
20260905184606 83 0 0.0 1.0 0.00 0.00 0.00 84 1016.0
20260905184033 83 0 0.0 1.0 0.00 0.00 0.00 83 1015.7
20260905183535 83 0 0.0 1.0 0.00 0.00 0.00 82 1015.7
20260905183111 83 0 0.0 1.0 0.00 0.00 0.00 83 1015.6
20260905182533 83 0 0.0 1.0 0.00 0.00 0.00 81 1015.8
20260905182038 84 0 0.0 1.0 0.00 0.00 0.00 78 1015.8
20260905181602 84 0 0.0 1.0 0.00 0.00 0.00 78 1015.8
20260905181034 85 0 0.0 1.0 0.00 0.00 0.00 77 1015.8
20260905180537 86 296 0.0 1.0 0.00 0.00 0.00 75 1016.0
20260905180106 86 296 0.0 2.0 0.00 0.00 0.00 73 1016.2
20260905175533 87 0 0.0 2.0 0.00 0.00 0.00 73 1016.0
20260905175034 87 0 0.0 4.0 0.00 0.00 0.00 69 1016.1
20260905174559 88 296 0.0 4.0 0.00 0.00 0.00 70 1016.2
20260905174033 88 0 1.0 4.0 0.00 0.00 0.00 70 1016.3
20260905173534 88 227 0.0 4.0 0.00 0.00 0.00 71 1016.3
20260905173057 88 0 0.0 4.0 0.00 0.00 0.00 72 1016.4
20260905172534 87 202 1.0 4.0 0.00 0.00 0.00 69 1016.3
20260905172033 87 217 0.0 4.0 0.00 0.00 0.00 71 1016.4
20260905171557 87 207 1.0 5.0 0.00 0.00 0.00 72 1016.7
20260905171034 87 194 2.0 5.0 0.00 0.00 0.00 73 1016.6
20260905170533 87 223 1.0 4.0 0.00 0.00 0.00 73 1016.6
20260905170107 86 216 0.0 4.0 0.00 0.00 0.00 73 1016.6
20260905165533 86 205 0.0 4.0 0.00 0.00 0.00 72 1016.8
20260905165033 86 0 0.0 4.0 0.00 0.00 0.00 74 1016.9
20260905164605 85 205 2.0 4.0 0.00 0.00 0.00 74 1017.0
20260905164035 85 344 1.0 4.0 0.00 0.00 0.00 76 1017.0
20260905163533 85 182 1.0 4.0 0.00 0.00 0.00 74 1017.3
20260905163058 85 216 0.0 3.0 0.00 0.00 0.00 76 1017.3
20260905162536 84 0 0.0 4.0 0.00 0.00 0.00 77 1017.3
20260905162034 84 217 1.0 4.0 0.00 0.00 0.00 77 1017.3
20260905161557 84 0 1.0 4.0 0.00 0.00 0.00 78 1017.4
20260905161034 83 0 0.0 5.0 0.00 0.00 0.00 78 1017.4
20260905160533 83 0 2.0 5.0 0.00 0.00 0.00 77 1017.6
20260905160056 83 0 0.0 3.0 0.00 0.00 0.00 78 1017.5
20260905155533 83 0 1.0 3.0 0.00 0.00 0.00 77 1017.5
20260905155036 83 0 0.0 3.0 0.00 0.00 0.00 77 1017.6
20260905154550 82 0 0.0 3.0 0.00 0.00 0.00 78 1017.7
20260905154033 82 198 0.0 3.0 0.00 0.00 0.00 80 1017.7
20260905153533 82 205 1.0 3.0 0.00 0.00 0.00 80 1017.9
20260905153058 81 0 0.0 4.0 0.00 0.00 0.00 81 1017.8